Tracking 30922 objects as of 2-Jul-2025
HD Live streaming from Space Station
objects crossing your sky now

DELTA 1 DEB

Track DELTA 1 DEB now!
10-day predictions


NORAD ID: 27577
Int'l Code: 1975-052LE
Perigee: 1,033.1 km
Apogee: 1,147.0 km
Inclination: 99.1 °
Period: 106.9 minutes
Semi major axis: 7461 km
RCS: 0.0165 m2 (small)
Launch date: June 12, 1975
Source: United States (US)
Launch site: AIR FORCE WESTERN TEST RANGE (AFWTR)

Note: This is SATELLITE DEBRIS
Your satellite tracking list
Your tracking list is empty




NASA's NSSDC Master Catalog

Two Line Element Set (TLE):
1 27577U 75052LE  25175.67722218  .00000393  00000-0  69888-3 0  9999
2 27577  99.1180  68.9357 0076360 209.7585 179.4877 13.47108357489412
Source of the keplerian elements: AFSPC